Time,TemperatureF,DewpointF,PressureIn,WindDirection,WindDirectionDegrees,WindSpeedMPH,WindSpeedGustMPH,Humidity,HourlyPrecipIn,Conditions,Clouds,dailyrainin,SolarRadiationWatts/m^2,SoftwareType,DateUTC
2013-04-26 00:01:00,72.4,66.6,30.22,East,86,1.2,3.5,82,0.00,,,0.00,0.0,WeatherDisplay:10.37,2013-04-26 04:01:00,
2013-04-26 00:06:00,72.2,66.7,30.22,NNW,345,0.6,2.3,83,0.00,CLR,,0.00,0.0,WeatherDisplay:10.37,2013-04-26 04:06:00,
2013-04-26 00:11:00,72.2,66.7,30.22,NE,54,0.0,1.2,83,0.00,CLR,,0.00,0.0,WeatherDisplay:10.37,2013-04-26 04:11:00,
2013-04-26 00:16:00,72.1,66.6,30.22,NE,45,1.0,3.5,83,0.00,CLR,,0.00,0.0,WeatherDisplay:10.37,2013-04-26 04:16:00,
2013-04-26 00:21:00,72.1,67.0,30.22,NE,44,1.3,3.5,84,0.00,CLR,,0.00,0.0,WeatherDisplay:10.37,2013-04-26 04:21:00,
2013-04-26 00:26:00,72.2,67.1,30.22,NNE,30,0.3,2.3,84,0.00,CLR,,0.00,0.0,WeatherDisplay:10.37,2013-04-26 04:26:00,
2013-04-26 00:31:00,72.2,67.1,30.22,NNE,13,0.8,3.5,84,0.00,CLR,,0.00,0.0,WeatherDisplay:10.37,2013-04-26 04:31:00,
2013-04-26 00:36:00,72.1,67.0,30.22,ENE,69,0.1,1.2,84,0.00,CLR,,0.00,0.0,WeatherDisplay:10.37,2013-04-26 04:36:00,
2013-04-26 00:41:00,72.1,67.0,30.22,ENE,63,1.4,3.5,84,0.00,CLR,,0.00,0.0,WeatherDisplay:10.37,2013-04-26 04:41:00,
2013-04-26 00:46:00,72.0,66.9,30.22,ENE,62,1.4,3.5,84,0.00,CLR,,0.00,0.0,WeatherDisplay:10.37,2013-04-26 04:46:00,
2013-04-26 00:51:00,72.0,66.9,30.22,ENE,71,1.0,2.3,84,0.00,CLR,,0.00,0.0,WeatherDisplay:10.37,2013-04-26 04:51:00,
2013-04-26 00:56:00,71.9,66.8,30.21,NE,52,1.4,3.0,84,0.00,CLR,,0.00,0.0,WeatherDisplay:10.37,2013-04-26 04:56:00,
2013-04-26 01:01:00,71.8,66.7,30.21,NE,55,0.3,2.3,84,0.00,,,0.00,0.0,WeatherDisplay:10.37,2013-04-26 05:01:00,
2013-04-26 01:06:00,71.6,66.8,30.21,NE,52,0.3,2.3,85,0.00,,,0.00,0.0,WeatherDisplay:10.37,2013-04-26 05:06:00,
2013-04-26 01:11:00,71.6,66.8,30.21,North,9,0.7,3.5,85,0.00,,,0.00,0.0,WeatherDisplay:10.37,2013-04-26 05:11:00,
2013-04-26 01:16:00,71.6,66.8,30.21,North,9,0.2,1.2,85,0.00,,,0.00,0.0,WeatherDisplay:10.37,2013-04-26 05:16:00,
2013-04-26 01:21:00,71.4,66.7,30.20,North,10,0.2,1.2,85,0.00,,,0.00,0.0,WeatherDisplay:10.37,2013-04-26 05:21:00,
2013-04-26 01:26:00,71.4,66.7,30.21,North,9,0.0,0.0,85,0.00,,,0.00,0.0,WeatherDisplay:10.37,2013-04-26 05:26:00,
2013-04-26 01:31:00,71.2,66.8,30.20,North,10,0.0,0.0,86,0.00,,,0.00,0.0,WeatherDisplay:10.37,2013-04-26 05:31:00,
2013-04-26 01:36:00,71.0,66.6,30.20,NE,51,0.4,1.2,86,0.00,,,0.00,0.0,WeatherDisplay:10.37,2013-04-26 05:36:00,
2013-04-26 01:41:00,70.9,66.5,30.20,NE,51,0.0,1.2,86,0.00,,,0.00,0.0,WeatherDisplay:10.37,2013-04-26 05:41:00,
2013-04-26 01:46:00,70.9,66.8,30.20,NE,51,0.0,0.0,87,0.00,,,0.00,0.0,WeatherDisplay:10.37,2013-04-26 05:46:00,
2013-04-26 01:51:00,70.7,66.6,30.20,NE,51,0.0,0.0,87,0.00,,,0.00,0.0,WeatherDisplay:10.37,2013-04-26 05:51:00,
2013-04-26 01:56:00,70.6,66.5,30.20,NE,51,0.0,0.0,87,0.00,,,0.00,0.0,WeatherDisplay:10.37,2013-04-26 05:56:00,
2013-04-26 02:01:00,70.4,66.3,30.20,NE,51,0.0,0.0,87,0.00,,,0.00,0.0,WeatherDisplay:10.37,2013-04-26 06:01:00,
2013-04-26 02:06:00,70.1,66.4,30.19,NE,51,0.0,0.0,88,0.00,,,0.00,0.0,WeatherDisplay:10.37,2013-04-26 06:06:00,
2013-04-26 02:11:00,69.8,66.4,30.19,NE,51,0.0,0.0,89,0.00,,,0.00,0.0,WeatherDisplay:10.37,2013-04-26 06:11:00,
2013-04-26 02:16:00,69.9,66.2,30.19,NE,51,0.0,0.0,88,0.00,,,0.00,0.0,WeatherDisplay:10.37,2013-04-26 06:16:00,
2013-04-26 02:21:00,69.7,66.3,30.19,NE,51,0.0,0.0,89,0.00,,,0.00,0.0,WeatherDisplay:10.37,2013-04-26 06:21:00,
2013-04-26 02:26:00,69.5,66.1,30.19,NE,51,0.0,0.0,89,0.00,,,0.00,0.0,WeatherDisplay:10.37,2013-04-26 06:26:00,
2013-04-26 02:31:00,69.3,66.2,30.19,NE,51,0.0,0.0,90,0.00,,,0.00,0.0,WeatherDisplay:10.37,2013-04-26 06:31:00,
2013-04-26 02:36:00,69.1,66.4,30.19,NE,51,0.0,0.0,91,0.00,,,0.00,0.0,WeatherDisplay:10.37,2013-04-26 06:36:00,
2013-04-26 02:41:00,69.1,66.4,30.19,NE,51,0.0,0.0,91,0.00,,,0.00,0.0,WeatherDisplay:10.37,2013-04-26 06:41:00,
2013-04-26 02:46:00,69.0,66.3,30.19,NE,51,0.0,0.0,91,0.00,,,0.00,0.0,WeatherDisplay:10.37,2013-04-26 06:46:00,
2013-04-26 02:51:00,69.1,66.4,30.19,NE,51,0.0,0.0,91,0.00,,,0.00,0.0,WeatherDisplay:10.37,2013-04-26 06:51:00,
2013-04-26 02:56:00,69.1,66.4,30.19,NE,51,0.0,0.0,91,0.00,,,0.00,0.0,WeatherDisplay:10.37,2013-04-26 06:56:00,
2013-04-26 03:01:00,68.8,66.1,30.19,NE,51,0.0,0.0,91,0.00,,,0.00,0.0,WeatherDisplay:10.37,2013-04-26 07:01:00,
2013-04-26 03:06:00,68.9,66.2,30.19,NE,51,0.0,0.0,91,0.00,,,0.00,0.0,WeatherDisplay:10.37,2013-04-26 07:06:00,
2013-04-26 03:11:00,68.6,65.9,30.18,NE,51,0.0,0.0,91,0.00,,,0.00,0.0,WeatherDisplay:10.37,2013-04-26 07:11:00,
2013-04-26 03:16:00,68.6,65.9,30.18,NE,51,0.0,0.0,91,0.00,,,0.00,0.0,WeatherDisplay:10.37,2013-04-26 07:16:00,
2013-04-26 03:21:00,68.4,66.0,30.18,NE,51,0.0,0.0,92,0.00,,,0.00,0.0,WeatherDisplay:10.37,2013-04-26 07:21:00,
2013-04-26 03:26:00,68.4,66.0,30.18,NE,51,0.0,0.0,92,0.00,,,0.00,0.0,WeatherDisplay:10.37,2013-04-26 07:26:00,
2013-04-26 03:31:00,68.3,65.6,30.18,NE,51,0.0,0.0,91,0.00,,,0.00,0.0,WeatherDisplay:10.37,2013-04-26 07:31:00,
2013-04-26 03:36:00,68.3,65.9,30.18,NE,51,0.0,0.0,92,0.00,,,0.00,0.0,WeatherDisplay:10.37,2013-04-26 07:36:00,
2013-04-26 03:41:00,68.1,65.7,30.18,NE,51,0.0,0.0,92,0.00,,,0.00,0.0,WeatherDisplay:10.37,2013-04-26 07:41:00,
2013-04-26 03:46:00,67.9,65.5,30.18,NE,51,0.0,0.0,92,0.00,,,0.00,0.0,WeatherDisplay:10.37,2013-04-26 07:46:00,
2013-04-26 03:51:00,67.9,65.5,30.18,NE,51,0.0,0.0,92,0.00,,,0.00,0.0,WeatherDisplay:10.37,2013-04-26 07:51:00,
2013-04-26 03:56:00,67.9,65.5,30.17,NE,51,0.0,0.0,92,0.00,,,0.00,0.0,WeatherDisplay:10.37,2013-04-26 07:56:00,
2013-04-26 04:02:00,67.9,65.5,30.17,NE,51,0.0,0.0,92,0.00,,,0.00,0.0,WeatherDisplay:10.37,2013-04-26 08:02:00,
2013-04-26 04:07:00,67.7,65.3,30.17,NE,51,0.0,0.0,92,0.00,,,0.00,0.0,WeatherDisplay:10.37,2013-04-26 08:07:00,
2013-04-26 04:12:00,67.6,65.2,30.17,NE,51,0.0,0.0,92,0.00,,,0.00,0.0,WeatherDisplay:10.37,2013-04-26 08:12:00,
2013-04-26 04:17:00,67.3,65.2,30.17,NE,51,0.0,0.0,93,0.00,,,0.00,0.0,WeatherDisplay:10.37,2013-04-26 08:17:00,
2013-04-26 04:22:00,67.1,65.0,30.17,NE,51,0.0,0.0,93,0.00,,,0.00,0.0,WeatherDisplay:10.37,2013-04-26 08:22:00,
2013-04-26 04:27:00,67.1,65.0,30.17,NE,51,0.0,0.0,93,0.00,,,0.00,0.0,WeatherDisplay:10.37,2013-04-26 08:27:00,
2013-04-26 04:32:00,67.0,64.9,30.17,NE,51,0.0,0.0,93,0.00,,,0.00,0.0,WeatherDisplay:10.37,2013-04-26 08:32:00,
2013-04-26 04:37:00,67.0,64.9,30.17,NE,51,0.0,0.0,93,0.00,,,0.00,0.0,WeatherDisplay:10.37,2013-04-26 08:37:00,
2013-04-26 04:42:00,66.9,64.8,30.17,NE,51,0.0,0.0,93,0.00,,,0.00,0.0,WeatherDisplay:10.37,2013-04-26 08:42:00,
2013-04-26 04:47:00,66.9,64.8,30.17,NE,51,0.0,0.0,93,0.00,,,0.00,0.0,WeatherDisplay:10.37,2013-04-26 08:47:00,
2013-04-26 04:52:00,66.8,64.7,30.17,NE,51,0.0,0.0,93,0.00,,,0.00,0.0,WeatherDisplay:10.37,2013-04-26 08:52:00,
2013-04-26 04:57:00,66.7,64.6,30.17,NE,51,0.0,0.0,93,0.00,,,0.00,0.0,WeatherDisplay:10.37,2013-04-26 08:57:00,
2013-04-26 05:02:00,66.5,64.4,30.16,NE,51,0.0,0.0,93,0.00,,,0.00,0.0,WeatherDisplay:10.37,2013-04-26 09:02:00,
2013-04-26 05:07:00,66.4,64.6,30.17,NE,51,0.0,0.0,94,0.00,,,0.00,0.0,WeatherDisplay:10.37,2013-04-26 09:07:00,
2013-04-26 05:12:00,66.4,64.6,30.16,NE,51,0.0,0.0,94,0.00,,,0.00,0.0,WeatherDisplay:10.37,2013-04-26 09:12:00,
2013-04-26 05:17:00,66.3,64.5,30.16,NE,51,0.0,0.0,94,0.00,,,0.00,0.0,WeatherDisplay:10.37,2013-04-26 09:17:00,
2013-04-26 05:22:00,66.1,64.3,30.17,NE,51,0.0,0.0,94,0.00,,,0.00,0.0,WeatherDisplay:10.37,2013-04-26 09:22:00,
2013-04-26 05:27:00,66.1,64.3,30.17,NE,51,0.0,0.0,94,0.00,,,0.00,0.0,WeatherDisplay:10.37,2013-04-26 09:27:00,
2013-04-26 05:32:00,65.9,64.1,30.17,NE,51,0.0,0.0,94,0.00,,,0.00,0.0,WeatherDisplay:10.37,2013-04-26 09:32:00,
2013-04-26 05:37:00,65.7,64.2,30.17,NE,51,0.0,0.0,95,0.00,,,0.00,0.0,WeatherDisplay:10.37,2013-04-26 09:37:00,
2013-04-26 05:42:00,65.6,64.1,30.17,NE,51,0.0,0.0,95,0.00,,,0.00,0.0,WeatherDisplay:10.37,2013-04-26 09:42:00,
2013-04-26 05:47:00,65.6,64.1,30.17,NE,51,0.0,0.0,95,0.00,,,0.00,0.0,WeatherDisplay:10.37,2013-04-26 09:47:00,
2013-04-26 05:52:00,65.6,64.4,30.17,NE,51,0.0,0.0,96,0.00,,,0.00,0.0,WeatherDisplay:10.37,2013-04-26 09:52:00,
2013-04-26 05:57:00,65.6,64.1,30.17,NE,51,0.0,0.0,95,0.00,,,0.00,0.0,WeatherDisplay:10.37,2013-04-26 09:57:00,
2013-04-26 06:02:00,65.6,64.1,30.17,NE,51,0.0,0.0,95,0.00,,,0.00,0.0,WeatherDisplay:10.37,2013-04-26 10:02:00,
2013-04-26 06:07:00,65.7,64.2,30.17,NE,51,0.0,0.0,95,0.00,,,0.00,0.0,WeatherDisplay:10.37,2013-04-26 10:07:00,
2013-04-26 06:12:00,65.4,63.9,30.18,NE,51,0.0,0.0,95,0.00,,,0.00,0.0,WeatherDisplay:10.37,2013-04-26 10:12:00,
2013-04-26 06:17:00,65.3,63.8,30.18,NE,51,0.0,0.0,95,0.00,,,0.00,0.0,WeatherDisplay:10.37,2013-04-26 10:17:00,
2013-04-26 06:22:00,65.2,64.0,30.18,NE,51,0.0,0.0,96,0.00,,,0.00,0.0,WeatherDisplay:10.37,2013-04-26 10:22:00,
2013-04-26 06:27:00,65.2,64.0,30.18,NE,51,0.0,0.0,96,0.00,,,0.00,0.0,WeatherDisplay:10.37,2013-04-26 10:27:00,
2013-04-26 06:32:00,65.2,64.0,30.18,NE,51,0.0,0.0,96,0.00,,,0.00,0.0,WeatherDisplay:10.37,2013-04-26 10:32:00,
2013-04-26 06:37:00,65.1,63.9,30.18,NE,51,0.0,0.0,96,0.00,,,0.00,0.0,WeatherDisplay:10.37,2013-04-26 10:37:00,
2013-04-26 06:42:00,65.0,63.8,30.19,NE,51,0.0,0.0,96,0.00,,,0.00,0.0,WeatherDisplay:10.37,2013-04-26 10:42:00,
2013-04-26 06:47:00,64.9,63.7,30.19,NE,51,0.0,0.0,96,0.00,,,0.00,0.0,WeatherDisplay:10.37,2013-04-26 10:47:00,
2013-04-26 06:52:00,64.9,63.7,30.19,NE,51,0.0,0.0,96,0.00,,,0.00,0.0,WeatherDisplay:10.37,2013-04-26 10:52:00,
2013-04-26 06:57:00,64.9,63.7,30.19,NE,51,0.0,0.0,96,0.00,,,0.00,5.0,WeatherDisplay:10.37,2013-04-26 10:57:00,
2013-04-26 07:02:00,65.0,63.8,30.19,NE,51,0.0,0.0,96,0.00,,,0.00,9.0,WeatherDisplay:10.37,2013-04-26 11:02:00,
2013-04-26 07:07:00,64.9,63.7,30.19,NE,51,0.0,0.0,96,0.00,,,0.00,14.0,WeatherDisplay:10.37,2013-04-26 11:07:00,
2013-04-26 07:12:00,65.0,63.8,30.20,NE,51,0.0,0.0,96,0.00,,,0.00,19.0,WeatherDisplay:10.37,2013-04-26 11:12:00,
2013-04-26 07:17:00,65.0,63.8,30.20,NE,51,0.0,0.0,96,0.00,,,0.00,26.0,WeatherDisplay:10.37,2013-04-26 11:17:00,
2013-04-26 07:22:00,65.3,64.4,30.20,NE,51,0.0,0.0,97,0.00,,,0.00,33.0,WeatherDisplay:10.37,2013-04-26 11:22:00,
2013-04-26 07:27:00,65.6,64.4,30.20,NE,51,0.0,0.0,96,0.00,,,0.00,40.0,WeatherDisplay:10.37,2013-04-26 11:27:00,
2013-04-26 07:32:00,65.8,64.6,30.20,NE,51,0.0,0.0,96,0.00,,,0.00,58.0,WeatherDisplay:10.37,2013-04-26 11:32:00,
2013-04-26 07:37:00,66.3,65.1,30.20,NE,51,0.0,0.0,96,0.00,,,0.00,72.0,WeatherDisplay:10.37,2013-04-26 11:37:00,
2013-04-26 07:42:00,66.8,65.3,30.21,NE,51,0.0,0.0,95,0.00,,,0.00,70.0,WeatherDisplay:10.37,2013-04-26 11:42:00,
2013-04-26 07:47:00,67.2,65.4,30.21,NE,51,0.0,0.0,94,0.00,,,0.00,100.0,WeatherDisplay:10.37,2013-04-26 11:47:00,
2013-04-26 07:52:00,67.8,65.7,30.21,NE,51,0.0,0.0,93,0.00,,,0.00,113.0,WeatherDisplay:10.37,2013-04-26 11:52:00,
2013-04-26 07:57:00,68.4,66.3,30.21,NE,51,0.0,0.0,93,0.00,,,0.00,130.0,WeatherDisplay:10.37,2013-04-26 11:57:00,
2013-04-26 08:02:00,69.0,66.9,30.21,NE,51,0.0,0.0,93,0.00,OVC,,0.00,148.0,WeatherDisplay:10.37,2013-04-26 12:02:00,
2013-04-26 08:07:00,69.8,67.1,30.21,NE,51,0.0,0.0,91,0.00,OVC,,0.00,167.0,WeatherDisplay:10.37,2013-04-26 12:07:00,
2013-04-26 08:12:00,70.8,67.7,30.21,NE,51,0.0,1.2,90,0.00,OVC,,0.00,183.0,WeatherDisplay:10.37,2013-04-26 12:12:00,
2013-04-26 08:17:00,71.7,68.0,30.21,NE,51,0.0,0.0,88,0.00,OVC,,0.00,118.0,WeatherDisplay:10.37,2013-04-26 12:17:00,
2013-04-26 08:22:00,72.3,67.9,30.21,NE,51,0.0,0.0,86,0.00,OVC,,0.00,218.0,WeatherDisplay:10.37,2013-04-26 12:22:00,
2013-04-26 08:27:00,72.9,68.1,30.21,NE,51,0.0,1.2,85,0.00,OVC,,0.00,220.0,WeatherDisplay:10.37,2013-04-26 12:27:00,
2013-04-26 08:32:00,73.1,67.3,30.21,NE,51,0.0,0.0,82,0.00,OVC,,0.00,251.0,WeatherDisplay:10.37,2013-04-26 12:32:00,
2013-04-26 08:37:00,73.5,67.3,30.22,NE,51,0.1,1.2,81,0.00,OVC,,0.00,267.0,WeatherDisplay:10.37,2013-04-26 12:37:00,
2013-04-26 08:42:00,73.8,67.6,30.22,East,87,0.5,2.3,81,0.00,OVC,,0.00,287.0,WeatherDisplay:10.37,2013-04-26 12:42:00,
2013-04-26 08:47:00,74.2,68.0,30.22,ESE,112,0.5,1.2,81,0.00,OVC,,0.00,285.0,WeatherDisplay:10.37,2013-04-26 12:47:00,
2013-04-26 08:52:00,74.2,67.3,30.22,ESE,114,0.0,0.0,79,0.00,OVC,,0.00,316.0,WeatherDisplay:10.37,2013-04-26 12:52:00,
2013-04-26 08:57:00,74.6,67.7,30.23,ESE,115,0.8,2.3,79,0.00,OVC,,0.00,341.0,WeatherDisplay:10.37,2013-04-26 12:57:00,
2013-04-26 09:02:00,75.0,67.3,30.23,South,171,0.3,1.2,77,0.00,OVC,,0.00,362.0,WeatherDisplay:10.37,2013-04-26 13:02:00,
2013-04-26 09:07:00,75.3,67.2,30.23,SE,133,1.2,3.5,76,0.00,OVC,,0.00,376.0,WeatherDisplay:10.37,2013-04-26 13:07:00,
2013-04-26 09:12:00,75.5,67.0,30.23,SE,133,0.1,1.2,75,0.00,OVC,,0.00,399.0,WeatherDisplay:10.37,2013-04-26 13:12:00,
2013-04-26 09:17:00,75.7,66.8,30.23,SE,141,0.1,1.2,74,0.00,OVC,,0.00,415.0,WeatherDisplay:10.37,2013-04-26 13:17:00,
2013-04-26 09:22:00,76.0,67.1,30.23,South,175,1.6,3.5,74,0.00,OVC,,0.00,436.0,WeatherDisplay:10.37,2013-04-26 13:22:00,
2013-04-26 09:27:00,76.0,66.3,30.23,SE,126,0.5,2.3,72,0.00,OVC,,0.00,455.0,WeatherDisplay:10.37,2013-04-26 13:27:00,
2013-04-26 09:32:00,76.3,66.6,30.23,SSE,149,0.1,1.2,72,0.00,OVC,,0.00,471.0,WeatherDisplay:10.37,2013-04-26 13:32:00,
2013-04-26 09:37:00,76.9,66.8,30.24,South,185,0.0,1.2,71,0.00,OVC,,0.00,494.0,WeatherDisplay:10.37,2013-04-26 13:37:00,
2013-04-26 09:42:00,77.6,67.0,30.24,ESE,105,0.8,1.2,70,0.00,OVC,,0.00,506.0,WeatherDisplay:10.37,2013-04-26 13:42:00,
2013-04-26 09:47:00,77.9,66.9,30.24,South,188,1.6,3.5,69,0.00,OVC,,0.00,527.0,WeatherDisplay:10.37,2013-04-26 13:47:00,
2013-04-26 09:52:00,78.7,66.8,30.24,ENE,67,0.8,2.3,67,0.00,OVC,,0.00,548.0,WeatherDisplay:10.37,2013-04-26 13:52:00,
2013-04-26 09:57:00,78.6,66.7,30.24,East,98,0.6,2.3,67,0.00,OVC,,0.00,568.0,WeatherDisplay:10.37,2013-04-26 13:57:00,
2013-04-26 10:02:00,78.4,66.1,30.24,SE,128,1.7,3.5,66,0.00,OVC,,0.00,577.0,WeatherDisplay:10.37,2013-04-26 14:02:00,
2013-04-26 10:07:00,78.5,66.2,30.24,SSE,148,0.5,2.3,66,0.00,OVC,,0.00,603.0,WeatherDisplay:10.37,2013-04-26 14:07:00,
2013-04-26 10:12:00,78.6,66.3,30.24,WSW,252,0.2,2.3,66,0.00,OVC,,0.00,628.0,WeatherDisplay:10.37,2013-04-26 14:12:00,
2013-04-26 10:17:00,78.8,66.0,30.25,West,262,1.5,3.5,65,0.00,OVC,,0.00,652.0,WeatherDisplay:10.37,2013-04-26 14:17:00,
2013-04-26 10:22:00,79.8,67.0,30.25,South,190,2.2,3.5,65,0.00,OVC,,0.00,679.0,WeatherDisplay:10.37,2013-04-26 14:22:00,
2013-04-26 10:27:00,79.7,66.0,30.25,SSE,153,3.3,3.5,63,0.00,OVC,,0.00,684.0,WeatherDisplay:10.37,2013-04-26 14:27:00,
2013-04-26 10:32:00,80.4,67.1,30.25,SSE,151,0.6,1.2,64,0.00,OVC,,0.00,696.0,WeatherDisplay:10.37,2013-04-26 14:32:00,
2013-04-26 10:37:00,80.0,66.3,30.25,SSE,167,1.7,2.3,63,0.00,OVC,,0.00,640.0,WeatherDisplay:10.37,2013-04-26 14:37:00,
2013-04-26 10:42:00,80.3,66.6,30.25,East,90,3.0,4.6,63,0.00,OVC,,0.00,712.0,WeatherDisplay:10.37,2013-04-26 14:42:00,
2013-04-26 10:47:00,81.0,66.8,30.25,SE,128,1.5,3.5,62,0.00,OVC,,0.00,700.0,WeatherDisplay:10.37,2013-04-26 14:47:00,
2013-04-26 10:52:00,80.2,66.0,30.25,SSW,200,0.6,2.3,62,0.00,OVC,,0.00,705.0,WeatherDisplay:10.37,2013-04-26 14:52:00,
2013-04-26 10:57:00,81.1,66.4,30.25,ESE,105,1.5,4.6,61,0.00,OVC,,0.00,726.0,WeatherDisplay:10.37,2013-04-26 14:57:00,
2013-04-26 11:02:00,80.9,66.7,30.25,SSE,154,1.9,3.5,62,0.00,OVC,,0.00,744.0,WeatherDisplay:10.37,2013-04-26 15:02:00,
2013-04-26 11:07:00,82.2,66.9,30.25,NE,39,4.5,6.9,60,0.00,OVC,,0.00,758.0,WeatherDisplay:10.37,2013-04-26 15:07:00,
2013-04-26 11:12:00,81.9,66.6,30.25,South,180,0.5,3.5,60,0.00,OVC,,0.00,766.0,WeatherDisplay:10.37,2013-04-26 15:12:00,
2013-04-26 11:17:00,82.8,67.0,30.25,SE,132,2.8,4.6,59,0.00,OVC,,0.00,773.0,WeatherDisplay:10.37,2013-04-26 15:17:00,
2013-04-26 11:22:00,81.5,65.8,30.25,NNW,345,3.3,8.1,59,0.00,OVC,,0.00,786.0,WeatherDisplay:10.37,2013-04-26 15:22:00,
2013-04-26 11:27:00,81.5,66.8,30.25,South,181,1.0,3.5,61,0.00,OVC,,0.00,796.0,WeatherDisplay:10.37,2013-04-26 15:27:00,
2013-04-26 11:32:00,83.0,67.2,30.25,ENE,76,3.5,4.6,59,0.00,OVC,,0.00,803.0,WeatherDisplay:10.37,2013-04-26 15:32:00,
2013-04-26 11:37:00,82.5,66.7,30.25,NNE,15,3.1,4.6,59,0.00,OVC,,0.00,828.0,WeatherDisplay:10.37,2013-04-26 15:37:00,
2013-04-26 11:42:00,82.5,67.2,30.25,East,95,0.7,2.3,60,0.00,OVC,,0.00,830.0,WeatherDisplay:10.37,2013-04-26 15:42:00,
2013-04-26 11:47:00,84.0,67.6,30.25,South,186,3.2,4.6,58,0.00,OVC,,0.00,842.0,WeatherDisplay:10.37,2013-04-26 15:47:00,
2013-04-26 11:52:00,84.3,66.9,30.25,ENE,69,1.0,5.8,56,0.00,OVC,,0.00,851.0,WeatherDisplay:10.37,2013-04-26 15:52:00,
2013-04-26 11:57:00,83.6,66.2,30.25,East,101,0.9,3.5,56,0.00,OVC,,0.00,860.0,WeatherDisplay:10.37,2013-04-26 15:57:00,
2013-04-26 12:02:00,83.7,67.4,30.25,ESE,112,1.5,3.5,58,0.00,OVC,,0.00,868.0,WeatherDisplay:10.37,2013-04-26 16:02:00,
2013-04-26 12:07:00,83.0,65.7,30.25,SSE,155,3.1,6.0,56,0.00,OVC,,0.00,882.0,WeatherDisplay:10.37,2013-04-26 16:07:00,
2013-04-26 12:12:00,85.1,66.0,30.25,NE,51,1.0,3.5,53,0.00,OVC,,0.00,888.0,WeatherDisplay:10.37,2013-04-26 16:12:00,
2013-04-26 12:17:00,84.4,65.9,30.25,North,360,0.3,1.2,54,0.00,OVC,,0.00,896.0,WeatherDisplay:10.37,2013-04-26 16:17:00,
2013-04-26 12:22:00,84.6,65.6,30.24,ENE,76,3.0,4.6,53,0.00,OVC,,0.00,898.0,WeatherDisplay:10.37,2013-04-26 16:22:00,
2013-04-26 12:27:00,84.2,64.7,30.24,NNW,348,0.2,3.5,52,0.00,OVC,,0.00,912.0,WeatherDisplay:10.37,2013-04-26 16:27:00,
2013-04-26 12:32:00,85.6,65.4,30.24,ENE,57,3.5,5.0,51,0.00,OVC,,0.00,918.0,WeatherDisplay:10.37,2013-04-26 16:32:00,
2013-04-26 12:37:00,84.4,64.9,30.24,SSE,165,3.0,5.8,52,0.00,OVC,,0.00,921.0,WeatherDisplay:10.37,2013-04-26 16:37:00,
2013-04-26 12:42:00,85.4,64.1,30.24,ESE,123,4.3,6.9,49,0.00,OVC,,0.00,926.0,WeatherDisplay:10.37,2013-04-26 16:42:00,
2013-04-26 12:47:00,85.5,65.3,30.24,SE,124,3.4,9.0,51,0.00,OVC,,0.00,930.0,WeatherDisplay:10.37,2013-04-26 16:47:00,
2013-04-26 12:52:00,85.1,64.4,30.24,East,101,3.2,4.6,50,0.00,OVC,,0.00,937.0,WeatherDisplay:10.37,2013-04-26 16:52:00,
2013-04-26 12:57:00,85.2,65.0,30.24,SE,129,4.1,6.0,51,0.00,OVC,,0.00,939.0,WeatherDisplay:10.37,2013-04-26 16:57:00,
2013-04-26 13:02:00,85.3,64.6,30.24,East,92,3.7,8.1,50,0.00,OVC,,0.00,944.0,WeatherDisplay:10.37,2013-04-26 17:02:00,
2013-04-26 13:07:00,85.7,64.9,30.23,SE,136,3.8,5.0,50,0.00,OVC,,0.00,947.0,WeatherDisplay:10.37,2013-04-26 17:07:00,
2013-04-26 13:12:00,86.1,64.7,30.23,NE,52,2.8,6.9,49,0.00,OVC,,0.00,949.0,WeatherDisplay:10.37,2013-04-26 17:12:00,
2013-04-26 13:17:00,85.7,64.9,30.23,NNE,22,3.3,5.0,50,0.00,OVC,,0.00,947.0,WeatherDisplay:10.37,2013-04-26 17:17:00,
2013-04-26 13:22:00,85.2,65.0,30.23,East,84,2.2,5.0,51,0.00,OVC,,0.00,949.0,WeatherDisplay:10.37,2013-04-26 17:22:00,
2013-04-26 13:27:00,85.9,65.1,30.23,NE,51,4.2,8.1,50,0.00,OVC,,0.00,960.0,WeatherDisplay:10.37,2013-04-26 17:27:00,
2013-04-26 13:32:00,86.5,66.2,30.23,NNE,21,3.8,7.0,51,0.00,OVC,,0.00,954.0,WeatherDisplay:10.37,2013-04-26 17:32:00,
2013-04-26 13:37:00,85.8,65.0,30.23,NE,40,3.6,9.2,50,0.00,OVC,,0.00,951.0,WeatherDisplay:10.37,2013-04-26 17:37:00,
2013-04-26 13:42:00,85.9,65.1,30.22,North,360,0.6,2.3,50,0.00,OVC,,0.00,953.0,WeatherDisplay:10.37,2013-04-26 17:42:00,
2013-04-26 13:47:00,86.2,66.5,30.22,NE,51,1.3,3.0,52,0.00,OVC,,0.00,954.0,WeatherDisplay:10.37,2013-04-26 17:47:00,
2013-04-26 13:52:00,87.7,65.6,30.22,NNE,15,1.7,4.0,48,0.00,OVC,,0.00,953.0,WeatherDisplay:10.37,2013-04-26 17:52:00,
2013-04-26 13:57:00,86.8,64.8,30.22,ENE,76,2.7,4.6,48,0.00,OVC,,0.00,967.0,WeatherDisplay:10.37,2013-04-26 17:57:00,
2013-04-26 14:02:00,86.6,65.2,30.22,ENE,72,3.5,9.2,49,0.00,OVC,,0.00,963.0,WeatherDisplay:10.37,2013-04-26 18:02:00,
2013-04-26 14:07:00,86.4,65.0,30.22,ENE,76,0.9,2.3,49,0.00,OVC,,0.00,882.0,WeatherDisplay:10.37,2013-04-26 18:07:00,
2013-04-26 14:12:00,87.2,65.1,30.22,East,92,3.7,8.1,48,0.00,OVC,,0.00,965.0,WeatherDisplay:10.37,2013-04-26 18:12:00,
2013-04-26 14:17:00,87.6,64.9,30.22,ENE,78,4.5,6.9,47,0.00,OVC,,0.00,963.0,WeatherDisplay:10.37,2013-04-26 18:17:00,
2013-04-26 14:22:00,88.1,65.3,30.22,East,96,2.6,8.1,47,0.00,OVC,,0.00,960.0,WeatherDisplay:10.37,2013-04-26 18:22:00,
2013-04-26 14:27:00,88.4,65.0,30.22,SE,134,3.9,6.9,46,0.00,OVC,,0.00,1014.0,WeatherDisplay:10.37,2013-04-26 18:27:00,
2013-04-26 14:32:00,88.7,65.3,30.21,SE,144,3.5,3.5,46,0.00,OVC,,0.00,1011.0,WeatherDisplay:10.37,2013-04-26 18:32:00,
2013-04-26 14:37:00,90.4,65.5,30.21,NNE,26,2.5,4.6,44,0.00,OVC,,0.00,1039.0,WeatherDisplay:10.37,2013-04-26 18:37:00,
2013-04-26 14:42:00,89.3,64.5,30.22,ENE,77,2.6,6.9,44,0.00,OVC,,0.00,1071.0,WeatherDisplay:10.37,2013-04-26 18:42:00,
2013-04-26 14:47:00,89.2,65.1,30.21,SE,141,4.6,8.1,45,0.00,OVC,,0.00,1053.0,WeatherDisplay:10.37,2013-04-26 18:47:00,
2013-04-26 14:52:00,90.2,65.3,30.21,NNE,12,3.6,6.9,44,0.00,OVC,,0.00,1046.0,WeatherDisplay:10.37,2013-04-26 18:52:00,
2013-04-26 14:57:00,87.4,64.1,30.21,East,84,3.9,6.0,46,0.00,OVC,,0.00,283.0,WeatherDisplay:10.37,2013-04-26 18:57:00,
2013-04-26 15:02:00,87.3,64.0,30.21,NNE,13,3.7,5.0,46,0.00,OVC,,0.00,292.0,WeatherDisplay:10.37,2013-04-26 19:02:00,
2013-04-26 15:07:00,86.8,64.2,30.21,NNE,29,1.5,3.5,47,0.00,OVC,,0.00,209.0,WeatherDisplay:10.37,2013-04-26 19:07:00,
2013-04-26 15:12:00,86.5,64.5,30.20,South,176,1.8,3.5,48,0.00,OVC,,0.00,956.0,WeatherDisplay:10.37,2013-04-26 19:12:00,
2013-04-26 15:17:00,86.4,67.2,30.20,South,184,3.5,5.8,53,0.00,OVC,,0.00,824.0,WeatherDisplay:10.37,2013-04-26 19:17:00,
2013-04-26 15:22:00,86.9,66.6,30.20,SSW,201,2.1,4.6,51,0.00,OVC,,0.00,853.0,WeatherDisplay:10.37,2013-04-26 19:22:00,
2013-04-26 15:27:00,86.4,67.2,30.20,West,261,1.4,4.0,53,0.00,OVC,,0.00,872.0,WeatherDisplay:10.37,2013-04-26 19:27:00,
2013-04-26 15:33:00,85.7,67.7,30.19,SSW,194,3.5,8.0,55,0.00,OVC,,0.00,824.0,WeatherDisplay:10.37,2013-04-26 19:33:00,
2013-04-26 15:38:00,85.2,67.7,30.20,South,188,2.7,4.6,56,0.00,OVC,,0.00,308.0,WeatherDisplay:10.37,2013-04-26 19:38:00,
2013-04-26 15:43:00,84.7,67.3,30.19,WSW,254,2.5,4.6,56,0.00,OVC,,0.00,239.0,WeatherDisplay:10.37,2013-04-26 19:43:00,
2013-04-26 15:48:00,84.5,68.1,30.19,WSW,240,1.4,3.5,58,0.00,OVC,,0.00,264.0,WeatherDisplay:10.37,2013-04-26 19:48:00,
2013-04-26 15:53:00,85.0,69.1,30.19,WSW,251,2.8,6.9,59,0.00,OVC,,0.00,264.0,WeatherDisplay:10.37,2013-04-26 19:53:00,
2013-04-26 15:58:00,84.8,68.4,30.18,WSW,257,5.4,9.2,58,0.00,OVC,,0.00,812.0,WeatherDisplay:10.37,2013-04-26 19:58:00,
2013-04-26 16:03:00,85.3,68.3,30.18,West,278,1.5,4.6,57,0.00,OVC,,0.00,779.0,WeatherDisplay:10.37,2013-04-26 20:03:00,
2013-04-26 16:08:00,85.7,68.2,30.18,SW,227,3.2,5.8,56,0.00,OVC,,0.00,752.0,WeatherDisplay:10.37,2013-04-26 20:08:00,
2013-04-26 16:13:00,86.6,69.0,30.18,West,279,0.6,3.0,56,0.00,OVC,,0.00,731.0,WeatherDisplay:10.37,2013-04-26 20:13:00,
2013-04-26 16:18:00,85.9,67.9,30.18,SSW,213,4.2,4.6,55,0.00,OVC,,0.00,733.0,WeatherDisplay:10.37,2013-04-26 20:18:00,
2013-04-26 16:23:00,85.7,68.7,30.18,North,349,0.9,3.5,57,0.00,OVC,,0.00,721.0,WeatherDisplay:10.37,2013-04-26 20:23:00,
2013-04-26 16:28:00,85.5,67.5,30.17,West,265,4.1,6.9,55,0.00,OVC,,0.00,631.0,WeatherDisplay:10.37,2013-04-26 20:28:00,
2013-04-26 16:33:00,86.3,68.2,30.17,SSW,204,1.7,3.0,55,0.00,OVC,,0.00,666.0,WeatherDisplay:10.37,2013-04-26 20:33:00,
2013-04-26 16:38:00,86.2,68.1,30.17,WNW,288,2.7,5.8,55,0.00,OVC,,0.00,659.0,WeatherDisplay:10.37,2013-04-26 20:38:00,
2013-04-26 16:43:00,85.4,68.4,30.17,South,184,2.0,3.5,57,0.00,OVC,,0.00,661.0,WeatherDisplay:10.37,2013-04-26 20:43:00,
2013-04-26 16:48:00,86.2,69.2,30.17,SW,233,1.3,4.6,57,0.00,OVC,,0.00,615.0,WeatherDisplay:10.37,2013-04-26 20:48:00,
2013-04-26 16:53:00,85.8,68.3,30.17,ENE,71,1.4,4.6,56,0.00,OVC,,0.00,613.0,WeatherDisplay:10.37,2013-04-26 20:53:00,
2013-04-26 16:58:00,85.4,68.9,30.17,SW,225,1.1,3.5,58,0.00,OVC,,0.00,594.0,WeatherDisplay:10.37,2013-04-26 20:58:00,
2013-04-26 17:03:00,85.9,69.4,30.17,NNW,345,1.0,4.0,58,0.00,CLR,,0.00,557.0,WeatherDisplay:10.37,2013-04-26 21:03:00,
2013-04-26 17:08:00,85.7,68.7,30.17,NW,316,4.7,8.1,57,0.00,CLR,,0.00,529.0,WeatherDisplay:10.37,2013-04-26 21:08:00,
2013-04-26 17:13:00,84.3,68.4,30.17,North,9,2.8,6.9,59,0.00,CLR,,0.00,524.0,WeatherDisplay:10.37,2013-04-26 21:13:00,
2013-04-26 17:18:00,84.2,68.8,30.17,WNW,297,3.4,5.8,60,0.00,CLR,,0.00,497.0,WeatherDisplay:10.37,2013-04-26 21:18:00,
2013-04-26 17:23:00,84.2,69.3,30.17,NNE,15,1.4,3.5,61,0.00,CLR,,0.00,473.0,WeatherDisplay:10.37,2013-04-26 21:23:00,
2013-04-26 17:28:00,84.5,69.6,30.16,SE,136,3.1,5.8,61,0.00,CLR,,0.00,459.0,WeatherDisplay:10.37,2013-04-26 21:28:00,
2013-04-26 17:33:00,84.2,69.8,30.16,NE,51,1.9,4.6,62,0.00,CLR,,0.00,446.0,WeatherDisplay:10.37,2013-04-26 21:33:00,
2013-04-26 17:38:00,83.7,69.3,30.16,NNE,14,2.9,6.0,62,0.00,CLR,,0.00,424.0,WeatherDisplay:10.37,2013-04-26 21:38:00,
2013-04-26 17:43:00,83.3,68.9,30.16,North,360,1.2,3.5,62,0.00,CLR,,0.00,404.0,WeatherDisplay:10.37,2013-04-26 21:43:00,
2013-04-26 17:48:00,82.8,68.4,30.17,NNE,28,3.8,5.8,62,0.00,CLR,,0.00,387.0,WeatherDisplay:10.37,2013-04-26 21:48:00,
2013-04-26 17:53:00,82.9,69.0,30.17,North,9,3.8,4.6,63,0.00,CLR,,0.00,369.0,WeatherDisplay:10.37,2013-04-26 21:53:00,
2013-04-26 17:58:00,82.6,69.2,30.16,NNE,14,1.7,4.6,64,0.00,CLR,,0.00,352.0,WeatherDisplay:10.37,2013-04-26 21:58:00,
2013-04-26 18:03:00,82.5,69.1,30.16,WSW,251,3.7,6.9,64,0.00,CLR,,0.00,339.0,WeatherDisplay:10.37,2013-04-26 22:03:00,
2013-04-26 18:08:00,82.1,69.2,30.16,North,360,6.1,9.2,65,0.00,CLR,,0.00,323.0,WeatherDisplay:10.37,2013-04-26 22:08:00,
2013-04-26 18:13:00,82.3,69.4,30.16,NNE,22,3.7,5.8,65,0.00,CLR,,0.00,301.0,WeatherDisplay:10.37,2013-04-26 22:13:00,
2013-04-26 18:18:00,83.0,70.0,30.16,North,5,1.1,3.0,65,0.00,CLR,,0.00,285.0,WeatherDisplay:10.37,2013-04-26 22:18:00,
2013-04-26 18:23:00,83.0,70.0,30.16,SSW,205,1.1,3.5,65,0.00,CLR,,0.00,262.0,WeatherDisplay:10.37,2013-04-26 22:23:00,
2013-04-26 18:28:00,82.4,69.4,30.16,NNW,335,2.9,4.6,65,0.00,CLR,,0.00,239.0,WeatherDisplay:10.37,2013-04-26 22:28:00,
2013-04-26 18:33:00,82.0,70.0,30.16,West,263,2.1,4.6,67,0.00,FEW,,0.00,227.0,WeatherDisplay:10.37,2013-04-26 22:33:00,
2013-04-26 18:38:00,81.5,69.9,30.16,WSW,245,2.2,4.6,68,0.00,SCT,,0.00,207.0,WeatherDisplay:10.37,2013-04-26 22:38:00,
2013-04-26 18:43:00,81.4,69.8,30.16,West,260,1.7,3.5,68,0.00,SCT,,0.00,188.0,WeatherDisplay:10.37,2013-04-26 22:43:00,
2013-04-26 18:48:00,81.4,69.8,30.17,NW,319,2.0,4.0,68,0.00,BKN,,0.00,174.0,WeatherDisplay:10.37,2013-04-26 22:48:00,
2013-04-26 18:53:00,81.2,69.6,30.17,NNE,18,1.8,3.5,68,0.00,BKN,,0.00,153.0,WeatherDisplay:10.37,2013-04-26 22:53:00,
2013-04-26 18:58:00,80.8,69.7,30.17,WNW,297,1.0,3.5,69,0.00,BKN,,0.00,134.0,WeatherDisplay:10.37,2013-04-26 22:58:00,
2013-04-26 19:03:00,80.7,69.2,30.17,NNE,24,1.8,4.0,68,0.00,BKN,,0.00,114.0,WeatherDisplay:10.37,2013-04-26 23:03:00,
2013-04-26 19:08:00,80.5,69.0,30.17,NE,34,1.9,5.8,68,0.00,BKN,,0.00,95.0,WeatherDisplay:10.37,2013-04-26 23:08:00,
2013-04-26 19:13:00,80.3,69.2,30.16,North,350,3.2,4.6,69,0.00,BKN,,0.00,83.0,WeatherDisplay:10.37,2013-04-26 23:13:00,
2013-04-26 19:18:00,80.0,68.9,30.17,NW,326,4.7,6.9,69,0.00,BKN,,0.00,46.0,WeatherDisplay:10.37,2013-04-26 23:18:00,
2013-04-26 19:23:00,79.6,68.5,30.17,NE,42,2.5,4.6,69,0.00,BKN,,0.00,42.0,WeatherDisplay:10.37,2013-04-26 23:23:00,
2013-04-26 19:28:00,79.3,68.2,30.17,NNW,345,4.6,8.1,69,0.00,BKN,,0.00,35.0,WeatherDisplay:10.37,2013-04-26 23:28:00,
2013-04-26 19:33:00,79.0,68.8,30.17,West,276,3.6,6.9,71,0.00,BKN,,0.00,30.0,WeatherDisplay:10.37,2013-04-26 23:33:00,
2013-04-26 19:38:00,79.0,69.2,30.17,NNE,23,2.3,3.5,72,0.00,,,0.00,25.0,WeatherDisplay:10.37,2013-04-26 23:38:00,
2013-04-26 19:43:00,78.7,68.9,30.17,NNE,27,4.1,8.1,72,0.00,,,0.00,18.0,WeatherDisplay:10.37,2013-04-26 23:43:00,
2013-04-26 19:48:00,78.3,69.3,30.17,North,360,4.5,8.1,74,0.00,,,0.00,12.0,WeatherDisplay:10.37,2013-04-26 23:48:00,
2013-04-26 19:53:00,78.1,69.5,30.17,NNW,346,2.8,4.6,75,0.00,,,0.00,9.0,WeatherDisplay:10.37,2013-04-26 23:53:00,
2013-04-26 20:06:00,77.6,69.4,30.17,NNW,343,0.7,4.6,76,0.00,,,0.00,0.0,WeatherDisplay:10.37,2013-04-27 00:06:00,
2013-04-26 20:11:00,77.4,69.2,30.17,NNW,344,0.9,3.5,76,0.00,,,0.00,0.0,WeatherDisplay:10.37,2013-04-27 00:11:00,
2013-04-26 20:16:00,77.3,69.5,30.17,NE,48,1.7,3.5,77,0.00,,,0.00,0.0,WeatherDisplay:10.37,2013-04-27 00:16:00,
2013-04-26 20:21:00,77.1,69.3,30.18,North,5,1.4,3.5,77,0.00,,,0.00,0.0,WeatherDisplay:10.37,2013-04-27 00:21:00,
2013-04-26 20:26:00,77.0,69.6,30.18,North,360,0.2,1.2,78,0.00,,,0.00,0.0,WeatherDisplay:10.37,2013-04-27 00:26:00,
2013-04-26 20:31:00,76.9,69.5,30.18,NNW,334,1.5,4.6,78,0.00,,,0.00,0.0,WeatherDisplay:10.37,2013-04-27 00:31:00,
2013-04-26 20:36:00,76.8,69.4,30.18,North,5,1.8,2.3,78,0.00,,,0.00,0.0,WeatherDisplay:10.37,2013-04-27 00:36:00,
2013-04-26 20:41:00,76.8,69.4,30.18,NNW,346,2.8,4.6,78,0.00,,,0.00,0.0,WeatherDisplay:10.37,2013-04-27 00:41:00,
2013-04-26 20:46:00,76.7,69.3,30.18,NNW,346,2.5,4.6,78,0.00,,,0.00,0.0,WeatherDisplay:10.37,2013-04-27 00:46:00,
2013-04-26 20:51:00,76.6,69.6,30.19,NNW,335,1.7,5.8,79,0.00,,,0.00,0.0,WeatherDisplay:10.37,2013-04-27 00:51:00,
2013-04-26 20:56:00,76.5,69.5,30.19,NNW,343,3.2,4.6,79,0.00,,,0.00,0.0,WeatherDisplay:10.37,2013-04-27 00:56:00,
2013-04-26 21:01:00,76.4,69.8,30.19,NNE,14,0.8,3.0,80,0.00,,,0.00,0.0,WeatherDisplay:10.37,2013-04-27 01:01:00,
2013-04-26 21:06:00,76.3,69.7,30.19,North,5,1.4,4.6,80,0.00,,,0.00,0.0,WeatherDisplay:10.37,2013-04-27 01:06:00,
2013-04-26 21:11:00,76.2,69.9,30.19,NNW,347,1.1,3.5,81,0.00,,,0.00,0.0,WeatherDisplay:10.37,2013-04-27 01:11:00,
2013-04-26 21:16:00,76.0,69.7,30.19,NNW,344,1.9,3.5,81,0.00,,,0.00,0.0,WeatherDisplay:10.37,2013-04-27 01:16:00,
2013-04-26 21:21:00,75.9,69.6,30.20,NNE,13,2.8,5.0,81,0.00,,,0.00,0.0,WeatherDisplay:10.37,2013-04-27 01:21:00,
2013-04-26 21:26:00,75.9,69.3,30.20,NNW,338,1.5,6.0,80,0.00,,,0.00,0.0,WeatherDisplay:10.37,2013-04-27 01:26:00,
2013-04-26 21:31:00,75.9,69.3,30.20,North,360,3.8,6.9,80,0.00,,,0.00,0.0,WeatherDisplay:10.37,2013-04-27 01:31:00,
2013-04-26 21:36:00,75.8,69.2,30.20,NNE,22,2.3,3.5,80,0.00,,,0.00,0.0,WeatherDisplay:10.37,2013-04-27 01:36:00,
2013-04-26 21:41:00,75.8,69.6,30.20,North,10,3.5,5.8,81,0.00,,,0.00,0.0,WeatherDisplay:10.37,2013-04-27 01:41:00,
2013-04-26 21:46:00,75.9,69.6,30.21,NW,304,2.6,4.0,81,0.00,,,0.00,0.0,WeatherDisplay:10.37,2013-04-27 01:46:00,
2013-04-26 21:51:00,76.0,69.7,30.21,NNE,23,1.9,4.6,81,0.00,,,0.00,0.0,WeatherDisplay:10.37,2013-04-27 01:51:00,
2013-04-26 21:56:00,75.9,70.0,30.22,NNW,340,2.6,3.5,82,0.00,,,0.00,0.0,WeatherDisplay:10.37,2013-04-27 01:56:00,
2013-04-26 22:01:00,75.7,69.8,30.22,NNE,19,1.0,3.5,82,0.00,CLR,,0.00,0.0,WeatherDisplay:10.37,2013-04-27 02:01:00,
2013-04-26 22:06:00,75.6,69.4,30.22,NNW,340,2.2,3.5,81,0.00,CLR,,0.00,0.0,WeatherDisplay:10.37,2013-04-27 02:06:00,
2013-04-26 22:11:00,75.6,69.4,30.22,NW,317,2.8,5.0,81,0.00,CLR,,0.00,0.0,WeatherDisplay:10.37,2013-04-27 02:11:00,
2013-04-26 22:16:00,75.6,69.0,30.22,ENE,76,0.4,2.3,80,0.00,CLR,,0.00,0.0,WeatherDisplay:10.37,2013-04-27 02:16:00,
2013-04-26 22:21:00,75.6,69.0,30.23,North,5,0.2,1.2,80,0.00,CLR,,0.00,0.0,WeatherDisplay:10.37,2013-04-27 02:21:00,
2013-04-26 22:26:00,75.7,69.1,30.23,ENE,63,0.0,3.5,80,0.00,CLR,,0.00,0.0,WeatherDisplay:10.37,2013-04-27 02:26:00,
2013-04-26 22:31:00,75.7,68.7,30.23,NNE,31,0.8,3.5,79,0.00,CLR,,0.00,0.0,WeatherDisplay:10.37,2013-04-27 02:31:00,
2013-04-26 22:36:00,75.7,68.7,30.23,North,5,1.9,3.5,79,0.00,CLR,,0.00,0.0,WeatherDisplay:10.37,2013-04-27 02:36:00,
2013-04-26 22:41:00,75.8,68.4,30.23,NNE,16,1.0,3.5,78,0.00,CLR,,0.00,0.0,WeatherDisplay:10.37,2013-04-27 02:41:00,
2013-04-26 22:46:00,75.9,68.2,30.23,North,360,1.9,4.6,77,0.00,CLR,,0.00,0.0,WeatherDisplay:10.37,2013-04-27 02:46:00,
2013-04-26 22:51:00,76.0,67.9,30.23,NNE,15,3.1,4.0,76,0.00,CLR,,0.00,0.0,WeatherDisplay:10.37,2013-04-27 02:51:00,
2013-04-26 22:56:00,76.0,67.5,30.23,NE,34,2.2,3.5,75,0.00,CLR,,0.00,0.0,WeatherDisplay:10.37,2013-04-27 02:56:00,
2013-04-26 23:01:00,75.9,67.4,30.23,NNE,23,1.3,2.3,75,0.00,CLR,,0.00,0.0,WeatherDisplay:10.37,2013-04-27 03:01:00,
2013-04-26 23:06:00,75.8,67.3,30.23,NNE,30,0.3,1.2,75,0.00,CLR,,0.00,0.0,WeatherDisplay:10.37,2013-04-27 03:06:00,
2013-04-26 23:11:00,75.7,67.6,30.23,NNE,16,0.1,1.2,76,0.00,CLR,,0.00,0.0,WeatherDisplay:10.37,2013-04-27 03:11:00,
2013-04-26 23:16:00,75.6,67.5,30.23,ENE,64,0.1,1.2,76,0.00,CLR,,0.00,0.0,WeatherDisplay:10.37,2013-04-27 03:16:00,
2013-04-26 23:21:00,75.3,67.6,30.23,North,360,0.4,0.0,77,0.00,CLR,,0.00,0.0,WeatherDisplay:10.37,2013-04-27 03:21:00,
2013-04-26 23:26:00,75.2,67.9,30.23,NE,45,0.0,2.3,78,0.00,CLR,,0.00,0.0,WeatherDisplay:10.37,2013-04-27 03:26:00,
2013-04-26 23:31:00,74.9,67.6,30.23,NE,45,0.0,0.0,78,0.00,CLR,,0.00,0.0,WeatherDisplay:10.37,2013-04-27 03:31:00,
2013-04-26 23:36:00,74.7,67.8,30.23,ENE,67,0.3,1.2,79,0.00,CLR,,0.00,0.0,WeatherDisplay:10.37,2013-04-27 03:36:00,
2013-04-26 23:41:00,74.5,67.9,30.23,ENE,67,0.0,0.0,80,0.00,CLR,,0.00,0.0,WeatherDisplay:10.37,2013-04-27 03:41:00,
2013-04-26 23:46:00,74.2,67.6,30.23,ENE,67,0.0,0.0,80,0.00,CLR,,0.00,0.0,WeatherDisplay:10.37,2013-04-27 03:46:00,
2013-04-26 23:51:00,74.0,67.8,30.23,ENE,67,0.0,0.0,81,0.00,CLR,,0.00,0.0,WeatherDisplay:10.37,2013-04-27 03:51:00,
2013-04-26 23:56:00,73.8,68.0,30.23,ENE,67,0.0,0.0,82,0.00,CLR,,0.00,0.0,WeatherDisplay:10.37,2013-04-27 03:56:00,